| time (UTC) | temp F | wind direction | speed knots | gust knots | rain 1hr in | rain 24hr in | rain mn in | humidity % | barometer mb |
| 20260510213003 | 70 | 10 | 3.5 | 12.2 | 0.00 | 0.00 | 0.00 | 32 | 1019.7 |
| 20260510212503 | 71 | 4 | 3.5 | 12.2 | 0.00 | 0.00 | 0.00 | 32 | 1019.8 |
| 20260510212003 | 71 | 332 | 2.6 | 7.8 | 0.00 | 0.00 | 0.00 | 32 | 1019.7 |
| 20260510211503 | 71 | 324 | 2.6 | 8.7 | 0.00 | 0.00 | 0.00 | 31 | 1019.8 |
| 20260510211024 | 71 | 350 | 3.5 | 13.0 | 0.00 | 0.00 | 0.00 | 29 | 1019.5 |
| 20260510210503 | 71 | 352 | 4.3 | 13.0 | 0.00 | 0.00 | 0.00 | 30 | 1019.7 |
| 20260510210004 | 72 | 335 | 3.5 | 13.0 | 0.00 | 0.00 | 0.00 | 29 | 1019.8 |
| 20260510205503 | 72 | 320 | 3.5 | 8.7 | 0.00 | 0.00 | 0.00 | 32 | 1019.7 |
| 20260510205003 | 72 | 322 | 3.5 | 11.3 | 0.00 | 0.00 | 0.00 | 32 | 1019.8 |
| 20260510204503 | 72 | 335 | 4.3 | 11.3 | 0.00 | 0.00 | 0.00 | 32 | 1019.6 |
| 20260510204024 | 72 | 336 | 4.3 | 11.3 | 0.00 | 0.00 | 0.00 | 28 | 1019.8 |
| 20260510203524 | 72 | 331 | 4.3 | 11.3 | 0.00 | 0.00 | 0.00 | 33 | 1019.8 |
| 20260510203003 | 72 | 341 | 4.3 | 11.3 | 0.00 | 0.00 | 0.00 | 34 | 1019.6 |
| 20260510202503 | 72 | 4 | 3.5 | 8.7 | 0.00 | 0.00 | 0.00 | 31 | 1019.8 |
| 20260510202003 | 72 | 10 | 2.6 | 8.7 | 0.00 | 0.00 | 0.00 | 31 | 1019.6 |
| 20260510201503 | 72 | 327 | 2.6 | 7.8 | 0.00 | 0.00 | 0.00 | 32 | 1019.9 |
| 20260510201003 | 72 | 329 | 1.7 | 7.0 | 0.00 | 0.00 | 0.00 | 29 | 1020.1 |
| 20260510200503 | 72 | 360 | 2.6 | 7.0 | 0.00 | 0.00 | 0.00 | 29 | 1020.0 |
| 20260510200024 | 73 | 333 | 2.6 | 7.8 | 0.00 | 0.00 | 0.00 | 32 | 1020.0 |
| 20260510195524 | 73 | 332 | 3.5 | 7.8 | 0.00 | 0.00 | 0.00 | 33 | 1019.9 |
| 20260510195024 | 73 | 347 | 4.3 | 13.9 | 0.00 | 0.00 | 0.00 | 33 | 1020.1 |
| 20260510194503 | 73 | 336 | 3.5 | 13.9 | 0.00 | 0.00 | 0.00 | 32 | 1019.8 |
| 20260510194024 | 73 | 324 | 3.5 | 13.9 | 0.00 | 0.00 | 0.00 | 32 | 1019.9 |
| 20260510193503 | 72 | 351 | 2.6 | 9.6 | 0.00 | 0.00 | 0.00 | 34 | 1019.6 |
| 20260510193003 | 72 | 338 | 1.7 | 8.7 | 0.00 | 0.00 | 0.00 | 32 | 1019.7 |
| 20260510192503 | 72 | 311 | 2.6 | 8.7 | 0.00 | 0.00 | 0.00 | 31 | 1019.6 |
| 20260510192024 | 72 | 330 | 2.6 | 8.7 | 0.00 | 0.00 | 0.00 | 32 | 1019.7 |
| 20260510191505 | 72 | 354 | 2.6 | 8.7 | 0.00 | 0.00 | 0.00 | 33 | 1019.8 |
| 20260510191003 | 72 | 332 | 2.6 | 9.6 | 0.00 | 0.00 | 0.00 | 30 | 1019.9 |
| 20260510190503 | 72 | 315 | 2.6 | 9.6 | 0.00 | 0.00 | 0.00 | 30 | 1019.7 |
| 20260510190003 | 72 | 283 | 2.6 | 7.8 | 0.00 | 0.00 | 0.00 | 28 | 1019.8 |
| 20260510185503 | 72 | 279 | 2.6 | 7.8 | 0.00 | 0.00 | 0.00 | 33 | 1019.6 |
| 20260510185003 | 72 | 329 | 2.6 | 7.0 | 0.00 | 0.00 | 0.00 | 31 | 1019.6 |
| 20260510184524 | 72 | 338 | 2.6 | 7.0 | 0.00 | 0.00 | 0.00 | 33 | 1019.7 |
| 20260510184003 | 72 | 349 | 2.6 | 7.0 | 0.00 | 0.00 | 0.00 | 32 | 1019.7 |
| 20260510183503 | 71 | 349 | 2.6 | 8.7 | 0.00 | 0.00 | 0.00 | 33 | 1019.8 |
| 20260510183024 | 71 | 326 | 3.5 | 8.7 | 0.00 | 0.00 | 0.00 | 33 | 1019.9 |
| 20260510182503 | 71 | 325 | 3.5 | 9.6 | 0.00 | 0.00 | 0.00 | 29 | 1019.6 |
| 20260510182003 | 71 | 346 | 3.5 | 9.6 | 0.00 | 0.00 | 0.00 | 33 | 1019.9 |
| 20260510181503 | 71 | 7 | 2.6 | 9.6 | 0.00 | 0.00 | 0.00 | 28 | 1019.7 |
| 20260510181024 | 71 | 356 | 2.6 | 8.7 | 0.00 | 0.00 | 0.00 | 30 | 1019.7 |
| 20260510180503 | 71 | 343 | 2.6 | 8.7 | 0.00 | 0.00 | 0.00 | 32 | 1019.9 |
| 20260510180005 | 71 | 333 | 4.3 | 11.3 | 0.00 | 0.00 | 0.00 | 29 | 1020.0 |
| 20260510175503 | 71 | 332 | 4.3 | 11.3 | 0.00 | 0.00 | 0.00 | 27 | 1020.0 |
| 20260510175003 | 71 | 347 | 3.5 | 11.3 | 0.00 | 0.00 | 0.00 | 30 | 1020.0 |
| 20260510174503 | 71 | 344 | 2.6 | 7.8 | 0.00 | 0.00 | 0.00 | 32 | 1019.9 |
| 20260510174003 | 71 | 326 | 3.5 | 9.6 | 0.00 | 0.00 | 0.00 | 33 | 1020.1 |
| 20260510173503 | 71 | 328 | 3.5 | 9.6 | 0.00 | 0.00 | 0.00 | 31 | 1020.1 |
| 20260510173003 | 71 | 319 | 2.6 | 8.7 | 0.00 | 0.00 | 0.00 | 32 | 1020.1 |
| 20260510172503 | 71 | 331 | 1.7 | 8.7 | 0.00 | 0.00 | 0.00 | 35 | 1020.0 |
| 20260510172004 | 70 | 9 | 1.7 | 5.2 | 0.00 | 0.00 | 0.00 | 31 | 1020.1 |
| 20260510171503 | 70 | 13 | 1.7 | 6.1 | 0.00 | 0.00 | 0.00 | 33 | 1020.1 |
| 20260510171024 | 70 | 10 | 1.7 | 6.1 | 0.00 | 0.00 | 0.00 | 32 | 1020.2 |
| 20260510170503 | 70 | 11 | 1.7 | 7.0 | 0.00 | 0.00 | 0.00 | 34 | 1020.0 |
| 20260510170003 | 70 | 358 | 2.6 | 7.8 | 0.00 | 0.00 | 0.00 | 31 | 1020.2 |
| 20260510165524 | 70 | 3 | 2.6 | 7.8 | 0.00 | 0.00 | 0.00 | 32 | 1020.1 |
| 20260510165003 | 70 | 345 | 1.7 | 7.8 | 0.00 | 0.00 | 0.00 | 33 | 1020.2 |
| 20260510164503 | 70 | 326 | 2.6 | 7.8 | 0.00 | 0.00 | 0.00 | 34 | 1020.4 |
| 20260510164003 | 70 | 326 | 2.6 | 7.8 | 0.00 | 0.00 | 0.00 | 29 | 1020.5 |
| 20260510163503 | 69 | 315 | 1.7 | 8.7 | 0.00 | 0.00 | 0.00 | 34 | 1020.4 |
| 20260510163003 | 69 | 342 | 2.6 | 8.7 | 0.00 | 0.00 | 0.00 | 33 | 1020.6 |
| 20260510162524 | 69 | 3 | 2.6 | 7.8 | 0.00 | 0.00 | 0.00 | 34 | 1020.5 |
| 20260510162003 | 69 | 353 | 2.6 | 8.7 | 0.00 | 0.00 | 0.00 | 34 | 1020.5 |
| 20260510161503 | 69 | 334 | 2.6 | 8.7 | 0.00 | 0.00 | 0.00 | 33 | 1020.3 |
| 20260510161003 | 69 | 334 | 2.6 | 8.7 | 0.00 | 0.00 | 0.00 | 34 | 1020.4 |
| 20260510160503 | 69 | 6 | 1.7 | 7.0 | 0.00 | 0.00 | 0.00 | 33 | 1020.2 |
| 20260510160003 | 69 | 11 | 1.7 | 9.6 | 0.00 | 0.00 | 0.00 | 38 | 1020.4 |
| 20260510155503 | 68 | 348 | 2.6 | 9.6 | 0.00 | 0.00 | 0.00 | 36 | 1020.1 |
| 20260510155024 | 68 | 334 | 3.5 | 7.0 | 0.00 | 0.00 | 0.00 | 35 | 1020.2 |
| 20260510154503 | 68 | 352 | 2.6 | 7.0 | 0.00 | 0.00 | 0.00 | 35 | 1020.5 |
| 20260510154003 | 68 | 11 | 2.6 | 7.0 | 0.00 | 0.00 | 0.00 | 36 | 1020.3 |
| 20260510153503 | 68 | 19 | 2.6 | 7.0 | 0.00 | 0.00 | 0.00 | 36 | 1020.4 |
| 20260510153003 | 67 | 12 | 2.6 | 7.0 | 0.00 | 0.00 | 0.00 | 35 | 1020.2 |
| 20260510152524 | 67 | 352 | 2.6 | 8.7 | 0.00 | 0.00 | 0.00 | 39 | 1020.2 |
| 20260510152003 | 67 | 346 | 2.6 | 8.7 | 0.00 | 0.00 | 0.00 | 40 | 1020.3 |
| 20260510151503 | 67 | 350 | 2.6 | 8.7 | 0.00 | 0.00 | 0.00 | 41 | 1020.1 |
| 20260510151003 | 66 | 356 | 2.6 | 8.7 | 0.00 | 0.00 | 0.00 | 40 | 1019.9 |
| 20260510150524 | 66 | 359 | 2.6 | 8.7 | 0.00 | 0.00 | 0.00 | 41 | 1019.8 |
| 20260510150003 | 66 | 356 | 2.6 | 7.0 | 0.00 | 0.00 | 0.00 | 43 | 1019.7 |
| 20260510145524 | 65 | 8 | 2.6 | 7.0 | 0.00 | 0.00 | 0.00 | 43 | 1019.8 |
| 20260510145003 | 65 | 15 | 2.6 | 7.0 | 0.00 | 0.00 | 0.00 | 43 | 1019.8 |
| 20260510144524 | 65 | 15 | 1.7 | 7.8 | 0.00 | 0.00 | 0.00 | 43 | 1019.4 |
| 20260510144003 | 64 | 5 | 2.6 | 8.7 | 0.00 | 0.00 | 0.00 | 45 | 1019.7 |
| 20260510143503 | 64 | 1 | 2.6 | 8.7 | 0.00 | 0.00 | 0.00 | 44 | 1019.2 |
| 20260510143003 | 64 | 16 | 1.7 | 7.0 | 0.00 | 0.00 | 0.00 | 43 | 1019.4 |
| 20260510142503 | 63 | 14 | 1.7 | 6.1 | 0.00 | 0.00 | 0.00 | 48 | 1019.1 |
| 20260510142003 | 63 | 11 | 1.7 | 6.1 | 0.00 | 0.00 | 0.00 | 45 | 1019.3 |
| 20260510141503 | 63 | 13 | 2.6 | 6.1 | 0.00 | 0.00 | 0.00 | 47 | 1019.2 |
| 20260510141024 | 62 | 10 | 1.7 | 6.1 | 0.00 | 0.00 | 0.00 | 48 | 1019.1 |
| 20260510140503 | 62 | 22 | 0.9 | 2.6 | 0.00 | 0.00 | 0.00 | 51 | 1019.2 |
| 20260510140004 | 61 | 17 | 1.7 | 3.5 | 0.00 | 0.00 | 0.00 | 50 | 1018.9 |
| 20260510135503 | 60 | 5 | 1.7 | 6.1 | 0.00 | 0.00 | 0.00 | 52 | 1018.9 |
| 20260510135024 | 59 | 357 | 1.7 | 6.1 | 0.00 | 0.00 | 0.00 | 50 | 1019.2 |
| 20260510134524 | 59 | 4 | 2.6 | 8.7 | 0.00 | 0.00 | 0.00 | 53 | 1019.1 |
| 20260510134003 | 58 | 10 | 2.6 | 8.7 | 0.00 | 0.00 | 0.00 | 51 | 1019.1 |
| 20260510133524 | 57 | 8 | 1.7 | 7.0 | 0.00 | 0.00 | 0.00 | 54 | 1019.3 |
| 20260510133003 | 56 | 1 | 2.6 | 7.0 | 0.00 | 0.00 | 0.00 | 55 | 1019.3 |
| 20260510132503 | 56 | 360 | 2.6 | 6.1 | 0.00 | 0.00 | 0.00 | 55 | 1019.1 |
| 20260510132003 | 55 | 7 | 1.7 | 5.2 | 0.00 | 0.00 | 0.00 | 56 | 1019.4 |
| 20260510131503 | 55 | 7 | 1.7 | 6.1 | 0.00 | 0.00 | 0.00 | 56 | 1019.0 |
| 20260510131003 | 55 | 9 | 1.7 | 6.1 | 0.00 | 0.00 | 0.00 | 57 | 1018.7 |
| 20260510130503 | 54 | 6 | 1.7 | 5.2 | 0.00 | 0.00 | 0.00 | 57 | 1018.7 |
| 20260510130004 | 54 | 5 | 1.7 | 6.1 | 0.00 | 0.00 | 0.00 | 58 | 1018.9 |
| 20260510125503 | 54 | 2 | 2.6 | 6.1 | 0.00 | 0.00 | 0.00 | 60 | 1018.5 |
| 20260510125003 | 53 | 7 | 1.7 | 6.1 | 0.00 | 0.00 | 0.00 | 59 | 1018.2 |
| 20260510124503 | 53 | 12 | 1.7 | 6.1 | 0.00 | 0.00 | 0.00 | 61 | 1018.5 |
| 20260510124003 | 53 | 9 | 1.7 | 6.1 | 0.00 | 0.00 | 0.00 | 60 | 1018.3 |
| 20260510123503 | 53 | 2 | 1.7 | 5.2 | 0.00 | 0.00 | 0.00 | 61 | 1018.3 |
| 20260510123003 | 53 | 357 | 1.7 | 5.2 | 0.00 | 0.00 | 0.00 | 62 | 1018.3 |
| 20260510122503 | 52 | 2 | 1.7 | 6.1 | 0.00 | 0.00 | 0.00 | 62 | 1018.2 |
| 20260510122024 | 52 | 359 | 1.7 | 6.1 | 0.00 | 0.00 | 0.00 | 61 | 1018.0 |
| 20260510121503 | 52 | 350 | 1.7 | 6.1 | 0.00 | 0.00 | 0.00 | 61 | 1018.0 |
| 20260510121003 | 52 | 345 | 2.6 | 6.1 | 0.00 | 0.00 | 0.00 | 60 | 1018.2 |
| 20260510120503 | 52 | 340 | 2.6 | 6.1 | 0.00 | 0.00 | 0.00 | 61 | 1018.0 |
| 20260510120003 | 52 | 341 | 1.7 | 6.1 | 0.00 | 0.00 | 0.00 | 62 | 1018.0 |
| 20260510115504 | 51 | 340 | 1.7 | 6.1 | 0.00 | 0.00 | 0.00 | 61 | 1017.8 |
| 20260510115024 | 51 | 333 | 1.7 | 5.2 | 0.00 | 0.00 | 0.00 | 62 | 1017.7 |
| 20260510114524 | 51 | 340 | 1.7 | 5.2 | 0.00 | 0.00 | 0.00 | 62 | 1017.2 |
| 20260510114003 | 51 | 357 | 0.9 | 3.5 | 0.00 | 0.00 | 0.00 | 62 | 1017.5 |
| 20260510113503 | 51 | 7 | 1.7 | 3.5 | 0.00 | 0.00 | 0.00 | 62 | 1017.1 |
| 20260510113003 | 52 | 5 | 1.7 | 3.5 | 0.00 | 0.00 | 0.00 | 61 | 1017.0 |
| 20260510112503 | 52 | 4 | 1.7 | 5.2 | 0.00 | 0.00 | 0.00 | 61 | 1016.8 |
| 20260510112003 | 51 | 360 | 1.7 | 5.2 | 0.00 | 0.00 | 0.00 | 62 | 1017.0 |
| 20260510111503 | 51 | 359 | 1.7 | 5.2 | 0.00 | 0.00 | 0.00 | 62 | 1016.8 |
| 20260510111024 | 51 | 3 | 1.7 | 3.5 | 0.00 | 0.00 | 0.00 | 63 | 1016.5 |
| 20260510110503 | 52 | 3 | 1.7 | 3.5 | 0.00 | 0.00 | 0.00 | 62 | 1016.7 |
| 20260510110003 | 52 | 2 | 1.7 | 3.5 | 0.00 | 0.00 | 0.00 | 62 | 1016.3 |
| 20260510105524 | 52 | 358 | 1.7 | 3.5 | 0.00 | 0.01 | 0.00 | 62 | 1016.4 |
| 20260510105003 | 52 | 355 | 1.7 | 3.5 | 0.00 | 0.01 | 0.00 | 62 | 1016.5 |
| 20260510104503 | 52 | 4 | 1.7 | 3.5 | 0.00 | 0.01 | 0.00 | 61 | 1016.4 |
| 20260510104003 | 52 | 3 | 1.7 | 5.2 | 0.00 | 0.01 | 0.00 | 61 | 1016.5 |
| 20260510103503 | 52 | 357 | 1.7 | 5.2 | 0.00 | 0.01 | 0.00 | 61 | 1016.3 |
| 20260510103024 | 53 | 357 | 0.9 | 3.5 | 0.00 | 0.01 | 0.00 | 61 | 1016.1 |
| 20260510102503 | 53 | 358 | 1.7 | 5.2 | 0.00 | 0.01 | 0.00 | 61 | 1016.3 |
| 20260510102003 | 53 | 359 | 1.7 | 5.2 | 0.00 | 0.01 | 0.00 | 61 | 1016.0 |
| 20260510101503 | 53 | 5 | 1.7 | 5.2 | 0.00 | 0.01 | 0.00 | 60 | 1015.9 |
| 20260510101003 | 54 | 6 | 1.7 | 3.5 | 0.00 | 0.01 | 0.00 | 61 | 1015.8 |
| 20260510100503 | 54 | 4 | 1.7 | 3.5 | 0.00 | 0.01 | 0.00 | 61 | 1015.7 |
| 20260510100003 | 54 | 5 | 0.9 | 3.5 | 0.00 | 0.01 | 0.00 | 60 | 1015.8 |
| 20260510095503 | 54 | 3 | 0.9 | 5.2 | 0.00 | 0.01 | 0.00 | 60 | 1015.9 |
| 20260510095003 | 54 | 354 | 1.7 | 5.2 | 0.00 | 0.01 | 0.00 | 59 | 1015.6 |
| 20260510094524 | 54 | 341 | 2.6 | 5.2 | 0.00 | 0.01 | 0.00 | 60 | 1015.6 |
| 20260510094003 | 54 | 333 | 2.6 | 5.2 | 0.00 | 0.01 | 0.00 | 61 | 1015.3 |
| 20260510093524 | 55 | 331 | 2.6 | 5.2 | 0.00 | 0.01 | 0.00 | 61 | 1015.5 |
| 20260510093024 | 55 | 323 | 1.7 | 5.2 | 0.00 | 0.01 | 0.00 | 62 | 1015.3 |
| 20260510092503 | 55 | 325 | 1.7 | 6.1 | 0.00 | 0.01 | 0.00 | 62 | 1015.2 |
| 20260510092003 | 55 | 343 | 2.6 | 6.1 | 0.00 | 0.01 | 0.00 | 62 | 1015.1 |
| 20260510091503 | 55 | 349 | 2.6 | 6.1 | 0.00 | 0.01 | 0.00 | 62 | 1014.7 |
| 20260510091003 | 55 | 354 | 1.7 | 3.5 | 0.00 | 0.01 | 0.00 | 63 | 1014.6 |
| 20260510090503 | 55 | 358 | 0.9 | 2.6 | 0.00 | 0.01 | 0.00 | 63 | 1014.3 |
| 20260510090003 | 55 | 355 | 1.7 | 2.6 | 0.00 | 0.01 | 0.00 | 63 | 1014.5 |
| 20260510085503 | 55 | 351 | 1.7 | 6.1 | 0.00 | 0.01 | 0.00 | 63 | 1014.3 |
| 20260510085003 | 55 | 351 | 1.7 | 6.1 | 0.00 | 0.01 | 0.00 | 64 | 1014.5 |
| 20260510084504 | 56 | 346 | 1.7 | 5.2 | 0.00 | 0.01 | 0.00 | 64 | 1014.4 |
| 20260510084003 | 55 | 342 | 1.7 | 5.2 | 0.00 | 0.01 | 0.00 | 64 | 1014.2 |
| 20260510083524 | 55 | 346 | 1.7 | 5.2 | 0.00 | 0.01 | 0.00 | 65 | 1014.4 |
| 20260510083024 | 56 | 354 | 1.7 | 3.5 | 0.00 | 0.01 | 0.00 | 65 | 1014.3 |
| 20260510082503 | 56 | 360 | 1.7 | 2.6 | 0.00 | 0.01 | 0.00 | 65 | 1014.1 |
| 20260510082003 | 56 | 358 | 0.9 | 2.6 | 0.00 | 0.01 | 0.00 | 65 | 1014.0 |
| 20260510081503 | 56 | 349 | 0.9 | 5.2 | 0.00 | 0.01 | 0.00 | 66 | 1013.9 |
| 20260510081003 | 56 | 348 | 1.7 | 5.2 | 0.00 | 0.01 | 0.00 | 67 | 1013.7 |
| 20260510080503 | 56 | 344 | 0.9 | 1.7 | 0.00 | 0.01 | 0.00 | 68 | 1013.7 |
| 20260510080003 | 56 | 342 | 0.9 | 2.6 | 0.00 | 0.01 | 0.00 | 68 | 1013.4 |
| 20260510075503 | 56 | 350 | 0.9 | 2.6 | 0.00 | 0.01 | 0.00 | 68 | 1013.7 |
| 20260510075003 | 56 | 351 | 0.9 | 5.2 | 0.00 | 0.01 | 0.00 | 69 | 1013.6 |
| 20260510074524 | 56 | 349 | 0.9 | 5.2 | 0.00 | 0.01 | 0.00 | 69 | 1013.6 |
| 20260510074003 | 57 | 354 | 1.7 | 5.2 | 0.00 | 0.01 | 0.00 | 69 | 1013.7 |
| 20260510073503 | 57 | 3 | 0.9 | 3.5 | 0.00 | 0.01 | 0.00 | 70 | 1013.6 |
| 20260510073003 | 57 | 5 | 0.9 | 2.6 | 0.00 | 0.01 | 0.00 | 70 | 1013.6 |
| 20260510072524 | 57 | 358 | 0.9 | 2.6 | 0.00 | 0.01 | 0.00 | 70 | 1013.6 |
| 20260510072003 | 57 | 348 | 0.9 | 2.6 | 0.00 | 0.01 | 0.00 | 70 | 1013.6 |
| 20260510071503 | 57 | 341 | 0.9 | 2.6 | 0.00 | 0.01 | 0.00 | 71 | 1013.6 |
| 20260510071024 | 57 | 337 | 0.9 | 2.6 | 0.00 | 0.01 | 0.00 | 72 | 1013.5 |
| 20260510070503 | 57 | 344 | 0.9 | 2.6 | 0.00 | 0.01 | 0.00 | 72 | 1013.5 |
| 20260510070003 | 57 | 353 | 0.9 | 2.6 | 0.00 | 0.01 | 0.00 | 72 | 1013.7 |
| 20260510065503 | 57 | 352 | 0.9 | 2.6 | 0.00 | 0.01 | 0.00 | 73 | 1013.6 |
| 20260510065003 | 57 | 352 | 0.9 | 2.6 | 0.00 | 0.01 | 0.00 | 74 | 1013.6 |
| 20260510064524 | 57 | 353 | 0.9 | 1.7 | 0.00 | 0.01 | 0.00 | 75 | 1013.8 |
| 20260510064003 | 56 | 349 | 0.9 | 2.6 | 0.00 | 0.01 | 0.00 | 77 | 1013.7 |
| 20260510063524 | 56 | 345 | 0.9 | 2.6 | 0.00 | 0.01 | 0.00 | 78 | 1013.7 |
| 20260510063024 | 56 | 349 | 0.9 | 2.6 | 0.00 | 0.01 | 0.00 | 79 | 1013.6 |
| 20260510062503 | 57 | 352 | 0.9 | 1.7 | 0.00 | 0.01 | 0.00 | 79 | 1013.7 |
| 20260510062024 | 56 | 350 | 0.9 | 2.6 | 0.00 | 0.01 | 0.00 | 79 | 1013.6 |
| 20260510061524 | 56 | 352 | 0.9 | 2.6 | 0.00 | 0.01 | 0.00 | 79 | 1013.5 |
| 20260510061024 | 56 | 356 | 0.9 | 1.7 | 0.00 | 0.01 | 0.00 | 79 | 1013.5 |
| 20260510060503 | 56 | 29 | 0.0 | 0.9 | 0.00 | 0.01 | 0.00 | 79 | 1013.7 |
| 20260510060003 | 56 | 0 | 0.0 | 0.9 | 0.00 | 0.01 | 0.00 | 79 | 1013.6 |
| 20260510055503 | 56 | 66 | 0.0 | 0.9 | 0.00 | 0.01 | 0.00 | 79 | 1013.6 |
| 20260510055003 | 56 | 99 | 0.0 | 0.9 | 0.00 | 0.01 | 0.00 | 79 | 1013.5 |
| 20260510054503 | 57 | 146 | 0.0 | 0.9 | 0.00 | 0.01 | 0.00 | 79 | 1013.4 |
| 20260510054003 | 57 | 177 | 0.0 | 0.9 | 0.00 | 0.01 | 0.00 | 78 | 1013.5 |
| 20260510053524 | 57 | 177 | 0.0 | 0.9 | 0.00 | 0.01 | 0.00 | 78 | 1013.5 |
| 20260510053024 | 58 | 177 | 0.0 | 1.7 | 0.00 | 0.01 | 0.00 | 78 | 1013.3 |
| 20260510052503 | 58 | 167 | 0.0 | 1.7 | 0.00 | 0.01 | 0.00 | 77 | 1013.4 |
| 20260510052003 | 58 | 156 | 0.0 | 1.7 | 0.00 | 0.01 | 0.00 | 76 | 1012.8 |
| 20260510051503 | 58 | 0 | 0.0 | 0.0 | 0.00 | 0.01 | 0.00 | 74 | 1012.7 |
| 20260510051024 | 59 | 0 | 0.0 | 0.0 | 0.00 | 0.01 | 0.00 | 74 | 1012.7 |
| 20260510050503 | 59 | 156 | 0.0 | 0.9 | 0.00 | 0.01 | 0.00 | 73 | 1012.8 |
| 20260510050004 | 60 | 156 | 0.0 | 0.9 | 0.00 | 0.01 | 0.00 | 72 | 1012.6 |
| 20260510045503 | 60 | 0 | 0.0 | 0.0 | 0.00 | 0.01 | 0.01 | 71 | 1012.6 |
| 20260510045003 | 61 | 0 | 0.0 | 0.0 | 0.00 | 0.01 | 0.01 | 70 | 1012.8 |
| 20260510044524 | 61 | 148 | 0.0 | 0.9 | 0.00 | 0.01 | 0.01 | 70 | 1012.8 |
| 20260510044003 | 61 | 148 | 0.0 | 0.9 | 0.00 | 0.01 | 0.01 | 70 | 1012.8 |
| 20260510043524 | 61 | 156 | 0.0 | 1.7 | 0.00 | 0.01 | 0.01 | 69 | 1012.7 |
| 20260510043003 | 61 | 167 | 0.0 | 1.7 | 0.00 | 0.01 | 0.01 | 69 | 1012.9 |
| 20260510042503 | 61 | 187 | 0.0 | 1.7 | 0.00 | 0.01 | 0.01 | 68 | 1012.9 |
| 20260510042003 | 62 | 184 | 0.0 | 1.7 | 0.00 | 0.01 | 0.01 | 68 | 1012.9 |
| 20260510041503 | 62 | 196 | 0.0 | 1.7 | 0.00 | 0.01 | 0.01 | 68 | 1012.7 |
| 20260510041024 | 62 | 198 | 0.0 | 1.7 | 0.00 | 0.01 | 0.01 | 67 | 1012.7 |
| 20260510040503 | 62 | 186 | 0.9 | 3.5 | 0.00 | 0.01 | 0.01 | 67 | 1013.0 |
| 20260510040004 | 62 | 182 | 0.9 | 3.5 | 0.00 | 0.01 | 0.01 | 67 | 1012.8 |
| 20260510035503 | 62 | 180 | 0.9 | 3.5 | 0.00 | 0.01 | 0.01 | 68 | 1012.6 |
| 20260510035003 | 63 | 180 | 0.9 | 2.6 | 0.00 | 0.01 | 0.01 | 67 | 1012.6 |
| 20260510034503 | 63 | 186 | 0.9 | 1.7 | 0.00 | 0.01 | 0.01 | 65 | 1012.4 |
| 20260510034003 | 64 | 211 | 0.9 | 2.6 | 0.00 | 0.01 | 0.01 | 65 | 1012.4 |
| 20260510033503 | 64 | 230 | 0.9 | 2.6 | 0.00 | 0.01 | 0.01 | 61 | 1012.2 |
| 20260510033003 | 65 | 284 | 0.9 | 5.2 | 0.00 | 0.01 | 0.01 | 58 | 1012.2 |
| 20260510032503 | 65 | 324 | 0.9 | 5.2 | 0.00 | 0.01 | 0.01 | 58 | 1012.0 |
| 20260510032003 | 65 | 332 | 1.7 | 3.5 | 0.00 | 0.01 | 0.01 | 56 | 1011.7 |
| 20260510031503 | 66 | 350 | 1.7 | 3.5 | 0.00 | 0.01 | 0.01 | 56 | 1011.5 |
| 20260510031003 | 66 | 3 | 1.7 | 3.5 | 0.00 | 0.01 | 0.01 | 56 | 1011.4 |
| 20260510030503 | 66 | 2 | 1.7 | 5.2 | 0.00 | 0.01 | 0.01 | 54 | 1011.4 |
| 20260510030004 | 67 | 355 | 1.7 | 5.2 | 0.00 | 0.01 | 0.01 | 54 | 1011.2 |
| 20260510025503 | 67 | 359 | 1.7 | 7.0 | 0.00 | 0.01 | 0.01 | 53 | 1011.1 |
| 20260510025003 | 67 | 4 | 1.7 | 7.0 | 0.00 | 0.01 | 0.01 | 53 | 1011.1 |
| 20260510024524 | 67 | 5 | 1.7 | 5.2 | 0.00 | 0.01 | 0.01 | 53 | 1010.8 |
| 20260510024003 | 67 | 2 | 1.7 | 5.2 | 0.00 | 0.01 | 0.01 | 53 | 1010.8 |
| 20260510023503 | 67 | 3 | 2.6 | 6.1 | 0.00 | 0.01 | 0.01 | 53 | 1010.3 |
| 20260510023003 | 67 | 4 | 2.6 | 6.1 | 0.00 | 0.01 | 0.01 | 52 | 1010.3 |
| 20260510022503 | 67 | 2 | 2.6 | 6.1 | 0.00 | 0.01 | 0.01 | 53 | 1010.0 |
| 20260510022024 | 66 | 1 | 2.6 | 9.6 | 0.00 | 0.01 | 0.01 | 52 | 1009.9 |
| 20260510021503 | 65 | 5 | 2.6 | 9.6 | 0.00 | 0.01 | 0.01 | 55 | 1009.8 |
| 20260510021024 | 65 | 4 | 2.6 | 6.1 | 0.00 | 0.01 | 0.01 | 58 | 1009.6 |
| 20260510020503 | 64 | 353 | 1.7 | 6.1 | 0.00 | 0.01 | 0.01 | 61 | 1009.2 |
| 20260510020003 | 64 | 308 | 0.0 | 1.7 | 0.00 | 0.01 | 0.01 | 60 | 1008.9 |
| 20260510015503 | 64 | 0 | 0.0 | 0.0 | 0.00 | 0.01 | 0.01 | 58 | 1008.6 |
| 20260510015003 | 65 | 0 | 0.0 | 0.0 | 0.00 | 0.01 | 0.01 | 57 | 1008.2 |
| 20260510014503 | 65 | 0 | 0.0 | 0.0 | 0.00 | 0.01 | 0.01 | 56 | 1008.3 |
| 20260510014003 | 65 | 0 | 0.0 | 0.0 | 0.00 | 0.01 | 0.01 | 55 | 1008.1 |
| 20260510013503 | 66 | 0 | 0.0 | 0.0 | 0.00 | 0.01 | 0.01 | 55 | 1008.1 |
| 20260510013003 | 67 | 0 | 0.0 | 0.0 | 0.00 | 0.01 | 0.01 | 53 | 1007.9 |
| 20260510012503 | 67 | 0 | 0.0 | 0.0 | 0.00 | 0.01 | 0.01 | 52 | 1008.1 |
| 20260510012003 | 67 | 0 | 0.0 | 0.0 | 0.00 | 0.01 | 0.01 | 51 | 1008.2 |
| 20260510011503 | 68 | 0 | 0.0 | 0.0 | 0.00 | 0.01 | 0.01 | 49 | 1008.1 |
| 20260510011003 | 69 | 0 | 0.0 | 0.0 | 0.00 | 0.01 | 0.01 | 49 | 1007.9 |
| 20260510010503 | 70 | 0 | 0.0 | 0.0 | 0.00 | 0.01 | 0.01 | 49 | 1007.9 |
| 20260510010003 | 70 | 0 | 0.0 | 0.0 | 0.00 | 0.01 | 0.01 | 46 | 1008.2 |
| 20260510005503 | 71 | 0 | 0.0 | 0.0 | 0.00 | 0.01 | 0.01 | 46 | 1007.8 |
| 20260510005003 | 71 | 0 | 0.0 | 0.0 | 0.00 | 0.01 | 0.01 | 45 | 1007.8 |
| 20260510004503 | 72 | 0 | 0.0 | 0.0 | 0.00 | 0.01 | 0.01 | 44 | 1007.9 |
| 20260510004024 | 72 | 0 | 0.0 | 0.0 | 0.00 | 0.01 | 0.01 | 44 | 1007.7 |
| 20260510003503 | 73 | 0 | 0.0 | 0.0 | 0.00 | 0.01 | 0.01 | 43 | 1007.8 |
| 20260510003004 | 73 | 0 | 0.0 | 0.0 | 0.00 | 0.01 | 0.01 | 42 | 1007.8 |
| 20260510002503 | 74 | 174 | 0.0 | 1.7 | 0.00 | 0.01 | 0.01 | 41 | 1007.7 |
| 20260510002003 | 75 | 173 | 0.0 | 1.7 | 0.00 | 0.01 | 0.01 | 41 | 1007.6 |
| 20260510001503 | 75 | 165 | 0.0 | 1.7 | 0.00 | 0.01 | 0.01 | 39 | 1007.4 |
| 20260510001003 | 75 | 163 | 0.9 | 1.7 | 0.00 | 0.01 | 0.01 | 40 | 1007.4 |
| 20260510000524 | 76 | 174 | 0.9 | 2.6 | 0.00 | 0.01 | 0.01 | 39 | 1007.4 |
| 20260510000003 | 76 | 191 | 0.9 | 3.5 | 0.00 | 0.01 | 0.01 | 39 | 1007.3 |
| 20260509235503 | 77 | 191 | 0.9 | 3.5 | 0.00 | 0.01 | 0.01 | 38 | 1007.3 |
| 20260509235003 | 77 | 179 | 0.9 | 2.6 | 0.00 | 0.01 | 0.01 | 38 | 1007.2 |
| 20260509234503 | 77 | 178 | 0.9 | 2.6 | 0.00 | 0.01 | 0.01 | 38 | 1007.4 |
| 20260509234003 | 78 | 189 | 0.9 | 5.2 | 0.00 | 0.01 | 0.01 | 37 | 1007.4 |
| 20260509233524 | 78 | 277 | 0.9 | 5.2 | 0.00 | 0.01 | 0.01 | 36 | 1007.6 |
| 20260509233003 | 79 | 288 | 0.9 | 3.5 | 0.00 | 0.01 | 0.01 | 36 | 1007.5 |
| 20260509232503 | 79 | 288 | 0.9 | 3.5 | 0.00 | 0.01 | 0.01 | 36 | 1007.6 |
| 20260509232003 | 79 | 300 | 1.7 | 5.2 | 0.00 | 0.01 | 0.01 | 36 | 1007.5 |
| 20260509231503 | 79 | 279 | 1.7 | 6.1 | 0.00 | 0.01 | 0.01 | 35 | 1007.5 |
| 20260509231003 | 79 | 252 | 1.7 | 6.1 | 0.00 | 0.01 | 0.01 | 35 | 1007.6 |
| 20260509230503 | 80 | 253 | 0.9 | 3.5 | 0.00 | 0.01 | 0.01 | 35 | 1007.4 |
| 20260509230003 | 80 | 224 | 0.9 | 7.0 | 0.00 | 0.01 | 0.01 | 35 | 1007.5 |
| 20260509225503 | 80 | 234 | 1.7 | 7.0 | 0.00 | 0.01 | 0.01 | 35 | 1007.5 |
| 20260509225003 | 80 | 260 | 1.7 | 7.0 | 0.00 | 0.01 | 0.01 | 34 | 1007.3 |
| 20260509224503 | 80 | 267 | 1.7 | 7.8 | 0.00 | 0.01 | 0.01 | 36 | 1007.3 |
| 20260509224003 | 80 | 282 | 1.7 | 7.8 | 0.00 | 0.02 | 0.01 | 35 | 1007.2 |
| 20260509223503 | 80 | 316 | 1.7 | 6.1 | 0.00 | 0.02 | 0.01 | 35 | 1007.2 |
| 20260509223003 | 80 | 309 | 2.6 | 7.8 | 0.00 | 0.02 | 0.01 | 35 | 1007.0 |
| 20260509222503 | 80 | 298 | 2.6 | 7.8 | 0.00 | 0.02 | 0.01 | 35 | 1007.3 |
| 20260509222003 | 80 | 283 | 2.6 | 7.8 | 0.00 | 0.02 | 0.01 | 35 | 1007.2 |
| 20260509221503 | 80 | 281 | 1.7 | 6.1 | 0.00 | 0.02 | 0.01 | 35 | 1007.2 |
| 20260509221003 | 80 | 302 | 1.7 | 5.2 | 0.00 | 0.02 | 0.01 | 35 | 1007.0 |
| 20260509220503 | 80 | 313 | 2.6 | 7.8 | 0.00 | 0.02 | 0.01 | 35 | 1006.9 |
| 20260509220003 | 81 | 320 | 2.6 | 7.8 | 0.00 | 0.02 | 0.01 | 34 | 1007.1 |
| 20260509215503 | 81 | 301 | 2.6 | 8.7 | 0.00 | 0.03 | 0.01 | 35 | 1006.9 |
| 20260509215003 | 81 | 316 | 2.6 | 8.7 | 0.00 | 0.04 | 0.01 | 36 | 1006.9 |
| 20260509214503 | 81 | 328 | 2.6 | 7.8 | 0.00 | 0.05 | 0.01 | 35 | 1007.2 |
| 20260509214003 | 81 | 266 | 2.6 | 6.1 | 0.00 | 0.05 | 0.01 | 36 | 1007.1 |
| 20260509213503 | 81 | 280 | 3.5 | 11.3 | 0.00 | 0.06 | 0.01 | 36 | 1007.4 |